Home > Weather > Bologna > Past weeks

Flag for Italy Past Weather in Bologna, Italy — Yesterday and Last 2 Weeks

Now
84 °F

Sunny.


Feels Like: 83 °F
Forecast: 67 / 92 °F
Wind: 2 mph from North

Location: Bologna / Borgo Panigale

Current Time: Aug 27, 2016 at 1:52:11 PM

Latest Report: Aug 27, 2016 at 12:50 PM


Visibility: 10 mi

Pressure: 30.12 "Hg

Humidity: 40%

Dew Point: 57 °F

Location of BolognaLocation

Past Weather in Bologna — Graph

°F

Bologna Temperature Yesterday

Maximum temperature yesterday: 86 °F (at 2:50 PM)
Minimum temperature yesterday: 63 °F (at 4:50 AM)
Average temperature yesterday: 74 °F

High & Low Weather Summary for the Past Weeks

 TemperatureHumidityPressure
High93 °F (Aug 15, 3:20 PM)100% (Aug 18, 7:20 AM)30.27 "Hg (Aug 18, 7:20 AM)
Low57 °F (Aug 23, 5:50 AM)28% (Aug 15, 4:20 PM)29.77 "Hg (Aug 17, 3:20 PM)
Average75 °F59%30.05 "Hg
* Reported Aug 12 12:20 PM — Aug 27 12:20 PM, Bologna, Weather by CustomWeather, © 2016

Note: Actual official high and low records may vary slightly from our data, if they occured in-between our weather recording intervals... More about our weather records

Advertising

Bologna Weather History for the Previous 24 Hours

Scroll right to see more
 ConditionsComfort  
Time TempWeatherWind HumidityBarometerVisibility
12:20 PM
Sat, Aug 27
82 °FPassing clouds.3 mph42%30.15 "HgN/A
11:50 AM81 °FPassing clouds.5 mph42%30.15 "HgN/A
11:20 AM81 °FSunny.5 mph45%30.15 "Hg10 mi
10:50 AM79 °FPassing clouds.5 mph51%30.15 "HgN/A
10:20 AM77 °FPassing clouds.5 mph51%30.15 "HgN/A
9:50 AM75 °FPassing clouds.5 mph54%30.15 "HgN/A
9:20 AM72 °FPassing clouds.6 mph57%30.15 "HgN/A
8:50 AM70 °FSunny.8 mph60%30.15 "Hg10 mi
8:20 AM66 °FSunny.7 mph68%30.15 "Hg10 mi
7:50 AM64 °FSunny.6 mph73%30.15 "Hg10 mi
7:20 AM63 °FPassing clouds.6 mph77%30.15 "HgN/A
6:50 AM63 °FPassing clouds.5 mph77%30.15 "HgN/A
6:20 AM63 °FClear.8 mph77%30.12 "Hg10 mi
5:50 AM64 °FClear.9 mph73%30.12 "Hg10 mi
5:20 AM64 °FClear.8 mph78%30.12 "Hg10 mi
4:50 AM64 °FClear.6 mph78%30.12 "Hg10 mi
4:20 AM64 °FClear.9 mph78%30.12 "Hg10 mi
2:50 AM64 °FClear.8 mph78%30.12 "Hg10 mi
1:50 AM66 °FClear.7 mph78%30.12 "Hg10 mi
1:20 AM66 °FClear.7 mph78%30.12 "Hg10 mi
12:50 AM68 °FPassing clouds.3 mph73%30.12 "HgN/A
12:20 AM68 °FClear.6 mph73%30.12 "Hg10 mi
11:50 PM
Fri, Aug 26
70 °FPassing clouds.3 mph73%30.12 "HgN/A
11:20 PM68 °FClear.3 mph78%30.12 "Hg10 mi
10:50 PM68 °FClear.3 mph73%30.12 "Hg10 mi
10:20 PM70 °FClear.5 mph69%30.12 "Hg10 mi
9:50 PM72 °FClear.6 mph65%30.12 "Hg10 mi
9:20 PM73 °FClear.7 mph61%30.09 "Hg10 mi
8:50 PM75 °FSunny.6 mph57%30.09 "Hg10 mi
8:20 PM77 °FSunny.7 mph54%30.09 "Hg10 mi
7:50 PM79 °FSunny.9 mph51%30.09 "Hg10 mi
7:20 PM81 °FSunny.8 mph48%30.07 "Hg10 mi
6:50 PM84 °FPassing clouds.6 mph43%30.07 "HgN/A
6:20 PM84 °FPassing clouds.5 mph40%30.07 "HgN/A
5:50 PM86 °FSunny.6 mph38%30.07 "Hg10 mi
5:20 PM86 °FPassing clouds.6 mph38%30.07 "HgN/A
4:50 PM86 °FPassing clouds.8 mph35%30.07 "HgN/A
4:20 PM86 °FPassing clouds.7 mph38%30.07 "HgN/A
3:50 PM86 °FPassing clouds.6 mph40%30.09 "HgN/A
3:20 PM86 °FPassing clouds.7 mph38%30.09 "HgN/A
2:50 PM86 °FPassing clouds.7 mph35%30.09 "HgN/A
2:20 PM84 °FPassing clouds.6 mph43%30.09 "HgN/A
1:50 PM84 °FPassing clouds.5 mph45%30.09 "HgN/A
1:20 PM84 °FPassing clouds.6 mph48%30.09 "HgN/A
Weather by CustomWeather, © 2016

See weather overviewHow to use our weather pages